FENGYUN 1C DEB

Satellite information

Favourite Embed

Satellite Type and Status

DEBRISIN ORBIT

Key statistics

Satellite FENGYUN 1C DEB at a glance.

Uptime

9659

Days in orbit

Revolutions

≈ 13.9

Per day

Orbit

SSO

Sun Synchronous Orbit

Inclination

98.3

Latest

Satellite identification and parameters

Extended collection of information and parameters for FENGYUN 1C DEB.

Object identification

Identified? True

Debris? True

Object name: FENGYUN 1C DEB

International designator: 1999-025BVU

Object number (NORAD): 31480

Object ID (CCSDS): 31480

Country: PEOPLES REPUBLIC OF CHINA (PRC)

Current information (Y/N): Y

RCS size: SMALL

Orbital parameters

Period: 103.676 minutes

Inclination: 98.34 deg

SMA: 7310.499 km

Apoapsis: 1189.534 km

Periapsis: 675.194 km

RAAN: 148.3141 deg

Eccentricy: 0.03517815

Argument of periapsis: 14.0266 deg

Mean anomaly: 347.0366 deg

Mean motion: 13.88935889 rev/day

Mean motion (dot): 0.00008364 rev/day2

B* drag term: 0.0042230952 1/REarth

Two-line elements (TLE)

Creation date: Oct. 19, 2025, 2:20 a.m.

Reference frame: TEME

Reference center: EARTH

Epoch: Oct. 18, 2025, 12:55 p.m. UTC

TLE line 0: 0 FENGYUN 1C DEB

TLE line 1: 1 31480U 99025BVU 25291.53830956 .00008364 00000-0 42231-2 0 9994

TLE line 2: 2 31480 98.3400 148.3141 0351782 14.0266 347.0366 13.88935889926298

Live tracking on map

Real-time ground track for satellite FENGYUN 1C DEB.

In-orbit conjunctions

A list of the most updated potential collisions computed for object FENGYUN 1C DEB.

Target Orbit TCA Probability of collision Miss distance Type
COSMOS 397 MEO 2025-07-01 20:59:47 0.0002532398 973.0 (m) PAYLOAD
FENGYUN 1C DEB SSO 2024-11-13 21:12:16 0.0009525506 196.0 (m) DEBRIS
COSMOS 1417 LEO 2024-09-27 21:29:33 0.0002137899 227.0 (m) PAYLOAD

Associated space launch

Chinese polar orbiting meteorological satellite

FENGYUN 1C DEB was lifted into orbit during the mission ‘Long March 4B | Feng Yun 1C’, on board a Long March 4B space rocket.

The launch took place on May 10, 1999, 1:33 a.m. from Launch Complex 7.

For more information about the launch, click the button.

Launch to space Long March 4B | Feng Yun 1C
Long March 4B | Feng Yun 1C

Agency: N/A

Status: Launch Successful

Launch date: May 10, 1999, 1:33 a.m. UTC

Rocket: Long March 4B

Launch pad: Launch Complex 7

Location: Taiyuan Satellite Launch Center, People's Republic of China

...

Latest news about this satellite

There are no fresh news available about this satellite. Check back as we update our databases every day.


Newsletter sign-up

Weekly statistics, charts and insights to help you stay on top of the space industry.